Regional Weather Roundup
Issued by NWS

Home | Current Version | Previous Version | Text Only | Print | Product List | Glossary Off
Versions: 1 2 3 4 5 6 7 8 9 10 11 12 13 14 15 16 17 18 19 20 21 22 23 24 25 26 27 28 29 30 31 32 33 34 35 36 37 38 39 40 41 42 43 44 45 46 47 48 49 50

140
ASUS44 KLIX 251701
RWRLA
LOUISIANA WEATHER ROUNDUP
NATIONAL WEATHER SERVICE NEW ORLEANS LA
1200 PM CDT FRI JUL 25 2014

NOTE: "FAIR" INDICATES FEW OR NO CLOUDS BELOW 12,000 FEET WITH NO
      SIGNIFICANT WEATHER AND/OR OBSTRUCTIONS TO VISIBILITY.
      SKY/WX - SKY CONDITION AND SIGNIFICANT WEATHER.
      TMP - AIR TEMPERATURE.    DP   - DEWPOINT TEMPERATURE.
      RH  - RELATIVE HUMIDITY.  PRES - PRESSURE.
      HX  - HEAT INDEX.         WCI  - WIND CHILL INDEX.

*  THESE STATIONS ARE NOT NWS OR FAA STATIONS AND ARE NOT UNDER
   NWS QUALITY CONTROL.

LAZ040-048-061>063-065-066-069-251800-
SOUTHEAST LOUISIANA

CITY           SKY/WX    TMP DP  RH WIND       PRES   REMARKS
N.O. AUDUBON     N/A     95  77  55 MISG        N/A  HX 109
N.O. INTL ARPT MOSUNNY   88  74  63 W6        30.04F HX  96
N.O. LAKEFRONT SUNNY     86  77  74 NW7       30.05S HX  97
N.O. DOWNTOWN* PTSUNNY   90  73  58 CALM      30.04F HX  98
SLIDELL        MOSUNNY   89  75  63 S5        30.04R HX  99
BATON ROUGE    MOSUNNY   89  73  59 SW7       30.04F HX  97
BOOTHVILLE     SUNNY     86  74  67 SW12      30.07R
BELLE CHASSE   PTSUNNY   89  72  56 W6        30.04F HX  96
BOGALUSA*      FAIR      90  73  58 NW3       30.05F HX  98
GALLIANO*      NOT AVBL
NEW ROADS*     FAIR      88  74  63 MISG      30.04F HX  97
GONZALES*      FAIR      88  76  68 W3        30.04S HX  98
HAMMOND*       SUNNY     91  72  52 NW6       30.05F HX  98
HOUMA*         MOSUNNY   86  68  54 SW6       30.05S
PORT FOURCHON* MOSUNNY   86  75  70 W9        30.08S HX  95

$$

LAZ041-044-053-054-251800-
SOUTHWEST LOUISIANA

CITY           SKY/WX    TMP DP  RH WIND       PRES   REMARKS
LAKE CHARLES   MOSUNNY   88  75  65 VRB3      30.03S HX  97
LAFAYETTE      PTSUNNY   88  74  63 SW9       30.04F HX  96
PATTERSON      MOSUNNY   90  77  66 W10       30.09S HX 102
SALT POINT       N/A     90  76  63 VRB3      30.05S HX 101
NEW IBERIA     MOSUNNY   89  75  63 W6        30.05S HX  99
CHENAULT AIRPK MOSUNNY   88  75  66 S3        30.04F HX  97

$$

LAZ027-028-251800-
CENTRAL LOUISIANA

CITY           SKY/WX    TMP DP  RH WIND       PRES   REMARKS
FORT POLK      PTSUNNY   86  72  62 W7        30.05S
ALEXANDRIA INT SUNNY     89  74  60 VRB3      30.02F HX  98
ALEXANDRIA     MOSUNNY   89  74  60 NW6       30.04F HX  98

$$

LAZ001-002-251800-
NORTHWEST LOUISIANA

CITY           SKY/WX    TMP DP  RH WIND       PRES   REMARKS
SHREVEPORT     PTSUNNY   87  72  60 W8        30.04F
BARKSDALE AFB  MOSUNNY   86  73  63 SW5       30.04F
DTN SHREVEPORT MOSUNNY   86  72  62 W7        30.04F

$$

LAZ014-016-251800-
NORTHEAST LOUISIANA

CITY           SKY/WX    TMP DP  RH WIND       PRES   REMARKS
MONROE         SUNNY     88  73  61 CALM      30.05F HX  95
TALLULAH       SUNNY     88  73  61 MISG      30.04F HX  95

$$




USA.gov is the U.S. government's official web portal to all federal, state and local government web resources and services.